Hoquiam, WA

7:23 AM PST on December 15, 2017 (GMT -0800)
Bowerman

Weather History for KHQM - November, 2012

Change the Weather History Date:

Sunday, November 18, 2012

  Actual Average Record
Temperature  
Mean Temperature 48 °F 45 °F  
Max Temperature 53 °F 51 °F 58 °F (1968)
Min Temperature 44 °F 40 °F 26 °F (1977)
Degree Days  
Heating Degree Days 16 20  
Month to date heating degree days 323  
Cooling Degree Days 0 0  
Month to date cooling degree days 0  
Year to date cooling degree days 23  
Moisture  
Dew Point 46 °F    
Average Humidity 91    
Maximum Humidity 100    
Minimum Humidity 82    
Precipitation  
Precipitation 1.45 in 0.40 in 2.10 in (2002)
Month to date precipitation 6.62  
Year to date precipitation 53.04  
Sea Level Pressure  
Sea Level Pressure 29.59 in    
Wind  
Wind Speed 13 mph (ESE)    
Max Wind Speed 25 mph    
Max Gust Speed 38 mph    
Visibility 6 miles    
Events Rain    
T = Trace of Precipitation, MM = Missing Value Source: NWS Daily Summary

Daily Weather History Graph

Daily Weather History Graph

Search for Another Location

Airport or City:

Trip Planner

Search our weather history database for the weather conditions in past years. The results will help you decide how hot, cold, wet, or windy it might be!

Date:

Astronomy

Nov. 18, 2012 Rise Set
Actual Time 7:24 AM PST 4:37 PM PST
Civil Twilight 6:50 AM PST 5:10 PM PST
Nautical Twilight 6:13 AM PST 5:48 PM PST
Astronomical Twilight 5:37 AM PST 6:24 PM PST
Moon 11:50 AM PST (11/18) 10:09 PM PST (11/18)
Length of Visible Light 10h 20m
Length of Day
9h 13m
Waxing Crescent, 31% of the Moon is Illuminated
Nov 18
Waxing Crescent
Nov 20
First Quarter
Nov 28
Full
Dec 6
Last Quarter
Dec 13
New

Hourly Weather History & Observations

Time (PST) Temp. Windchill Dew Point Humidity Pressure Visibility Wind Dir Wind Speed Gust Speed Precip Events Conditions
12:53 AM 46.9 °F - 44.1 °F 90% 29.69 in 8.0 mi SE 10.4 mph - 0.01 in Rain Light Rain
1:53 AM 46.9 °F - 43.0 °F 86% 29.70 in 10.0 mi SSE 11.5 mph - 0.00 in Rain Light Rain
2:53 AM 46.9 °F - 43.0 °F 86% 29.71 in 10.0 mi SE 11.5 mph - 0.00 in   Overcast
3:53 AM 46.9 °F - 43.0 °F 86% 29.70 in 10.0 mi SE 11.5 mph - N/A   Mostly Cloudy
4:53 AM 46.0 °F 40.6 °F 43.0 °F 89% 29.70 in 3.0 mi ESE 11.5 mph - 0.05 in Rain Rain
5:48 AM 46.4 °F 41.1 °F 44.6 °F 93% 29.71 in 4.0 mi SE 11.5 mph - 0.09 in Rain Rain
5:53 AM 46.0 °F 39.6 °F 44.1 °F 93% 29.72 in 4.0 mi SE 15.0 mph - 0.12 in Rain Rain
6:05 AM 46.4 °F 41.1 °F 44.6 °F 93% 29.70 in 7.0 mi SSE 11.5 mph - 0.02 in Rain Light Rain
6:53 AM 46.0 °F 41.4 °F 44.1 °F 93% 29.71 in 6.0 mi ESE 9.2 mph - 0.16 in Rain Light Rain
7:44 AM 44.6 °F 38.1 °F 42.8 °F 93% 29.70 in 10.0 mi East 13.8 mph - 0.07 in Rain Light Rain
7:53 AM 45.0 °F 39.3 °F 43.0 °F 93% 29.70 in 10.0 mi East 11.5 mph - 0.07 in   Overcast
8:14 AM 44.6 °F 39.7 °F 44.6 °F 100% 29.69 in 2.0 mi ENE 9.2 mph - 0.02 in Rain Light Rain
8:24 AM 44.6 °F 40.2 °F 42.8 °F 93% 29.69 in 3.0 mi ENE 8.1 mph - 0.04 in Rain Rain
8:53 AM 45.0 °F 39.7 °F 44.1 °F 97% 29.70 in 10.0 mi ENE 10.4 mph - 0.06 in   Overcast
9:34 AM 46.4 °F 40.7 °F 44.6 °F 93% 29.69 in 10.0 mi East 12.7 mph - 0.01 in   Overcast
9:53 AM 46.9 °F - 45.0 °F 93% 29.70 in 8.0 mi East 11.5 mph - 0.01 in Rain Light Rain
10:21 AM 46.4 °F 41.1 °F 44.6 °F 93% 29.69 in 10.0 mi East 11.5 mph - 0.00 in   Mostly Cloudy
10:53 AM 46.9 °F - 45.0 °F 93% 29.70 in 8.0 mi East 12.7 mph - 0.02 in Rain Light Rain
11:06 AM 46.4 °F 40.4 °F 44.6 °F 93% 29.68 in 7.0 mi East 13.8 mph - 0.00 in Rain Light Rain
11:53 AM 46.9 °F - 45.0 °F 93% 29.67 in 4.0 mi East 15.0 mph - 0.01 in Rain Light Rain
12:16 PM 46.4 °F 40.4 °F 44.6 °F 93% 29.65 in 2.5 mi East 13.8 mph - 0.02 in Rain Light Rain
12:24 PM 46.4 °F 40.4 °F 44.6 °F 93% 29.64 in 4.0 mi East 13.8 mph - 0.03 in Rain Light Rain
12:53 PM 46.9 °F - 45.0 °F 93% 29.64 in 4.0 mi East 15.0 mph - 0.07 in Rain Light Rain
1:10 PM 46.4 °F 39.8 °F 44.6 °F 93% 29.62 in 5.0 mi East 16.1 mph - 0.02 in Rain Light Rain
1:53 PM 48.0 °F - 45.0 °F 89% 29.60 in 5.0 mi East 17.3 mph - 0.06 in Rain Light Rain
2:53 PM 48.0 °F - 45.0 °F 89% 29.57 in 3.0 mi East 17.3 mph - 0.09 in Rain Rain
3:00 PM 48.2 °F - 44.6 °F 87% 29.55 in 3.0 mi East 18.4 mph - 0.02 in Rain Rain
3:15 PM 48.2 °F - 44.6 °F 87% 29.54 in 3.0 mi East 19.6 mph - 0.06 in Rain Rain
3:33 PM 48.2 °F - 44.6 °F 87% 29.52 in 3.0 mi East 17.3 mph - 0.11 in Rain Light Rain
3:53 PM 48.0 °F - 45.0 °F 89% 29.52 in 4.0 mi East 19.6 mph - 0.15 in Rain Rain
4:04 PM 48.2 °F - 44.6 °F 87% 29.50 in 4.0 mi East 19.6 mph 28.8 mph 0.02 in Rain Light Rain
4:53 PM 48.0 °F - 45.0 °F 89% 29.47 in 3.0 mi East 23.0 mph 31.1 mph 0.17 in Rain Rain
5:41 PM 48.2 °F - 44.6 °F 87% 29.44 in 4.0 mi ESE 24.2 mph 35.7 mph 0.14 in Rain Light Rain
5:53 PM 48.0 °F - 45.0 °F 89% 29.46 in 4.0 mi ESE 21.9 mph 33.4 mph 0.15 in Rain Light Rain
6:06 PM 48.2 °F - 46.4 °F 93% 29.46 in 2.5 mi SE 21.9 mph 29.9 mph 0.04 in Rain Rain
6:27 PM 48.2 °F - 46.4 °F 93% 29.48 in 8.0 mi SSE 25.3 mph 38.0 mph 0.09 in Rain Light Rain
6:53 PM 51.1 °F - 48.0 °F 89% 29.49 in 9.0 mi SSE 18.4 mph - 0.09 in   Overcast
7:00 PM 51.8 °F - 48.2 °F 88% 29.48 in 8.0 mi SSE 17.3 mph 23.0 mph 0.00 in Rain Light Rain
7:13 PM 51.8 °F - 50.0 °F 94% 29.49 in 10.0 mi South 17.3 mph - 0.00 in   Overcast
7:24 PM 53.6 °F - 48.2 °F 82% 29.48 in 10.0 mi SSW 19.6 mph - 0.00 in   Overcast
7:53 PM 52.0 °F - 48.9 °F 89% 29.51 in 10.0 mi South 15.0 mph - 0.00 in   Overcast
8:29 PM 51.8 °F - 48.2 °F 88% 29.50 in 10.0 mi SSE 11.5 mph - N/A   Overcast
8:53 PM 52.0 °F - 48.9 °F 89% 29.52 in 9.0 mi SSE 9.2 mph - N/A   Overcast
9:53 PM 50.0 °F - 48.9 °F 96% 29.52 in 4.0 mi East 8.1 mph - 0.04 in Rain Light Rain
10:01 PM 50.0 °F - 48.2 °F 94% 29.50 in 4.0 mi ENE 5.8 mph - 0.01 in Rain Light Rain
10:05 PM 48.2 °F - 48.2 °F 100% 29.50 in 5.0 mi NE 6.9 mph - 0.02 in Rain Light Rain
10:28 PM 48.2 °F - 48.2 °F 100% 29.50 in 3.0 mi ESE 8.1 mph - 0.06 in Rain Rain
10:31 PM 50.0 °F - 48.2 °F 94% 29.50 in 2.5 mi East 8.1 mph - 0.09 in Rain Rain
10:46 PM 48.2 °F - 48.2 °F 100% 29.50 in 5.0 mi East 9.2 mph - 0.10 in Rain Light Rain
10:53 PM 51.1 °F - 50.0 °F 96% 29.52 in 6.0 mi SSE 13.8 mph - 0.10 in Rain Light Rain
11:12 PM 53.6 °F - 50.0 °F 88% 29.50 in 8.0 mi SSE 19.6 mph 28.8 mph 0.01 in   Overcast
11:53 PM 53.1 °F - 50.0 °F 89% 29.52 in 10.0 mi SSE 19.6 mph 25.3 mph 0.02 in   Overcast